TimePST,TemperatureF,Dew PointF,Humidity,Sea Level PressureIn,VisibilityMPH,Wind Direction,Wind SpeedMPH,Gust SpeedMPH,PrecipitationIn,Events,Conditions,WindDirDegrees,DateUTC
12:53 AM,19.0,16.0,88,30.45,10.0,Calm,Calm,-,N/A,,Clear,0,2013-11-26 08:53:00
1:53 AM,19.9,16.0,85,30.45,10.0,NW,3.5,-,N/A,,Clear,310,2013-11-26 09:53:00
2:53 AM,19.0,15.1,85,30.44,10.0,Calm,Calm,-,N/A,,Clear,0,2013-11-26 10:53:00
3:53 AM,19.9,16.0,85,30.43,10.0,Calm,Calm,-,N/A,,Clear,0,2013-11-26 11:53:00
4:53 AM,19.9,17.1,89,30.43,10.0,Calm,Calm,-,N/A,,Clear,0,2013-11-26 12:53:00
5:53 AM,17.1,14.0,88,30.42,10.0,Calm,Calm,-,N/A,,Clear,0,2013-11-26 13:53:00
6:53 AM,18.0,14.0,84,30.41,10.0,Calm,Calm,-,N/A,,Clear,0,2013-11-26 14:53:00
7:53 AM,19.9,16.0,85,30.41,10.0,Calm,Calm,-,N/A,,Clear,0,2013-11-26 15:53:00
8:53 AM,26.1,21.9,84,30.40,10.0,Calm,Calm,-,N/A,,Clear,0,2013-11-26 16:53:00
9:53 AM,28.9,23.0,78,30.40,10.0,Calm,Calm,-,N/A,,Clear,0,2013-11-26 17:53:00
10:53 AM,30.0,23.0,75,30.37,10.0,SSE,3.5,-,N/A,,Clear,160,2013-11-26 18:53:00
11:53 AM,32.0,21.9,66,30.35,10.0,South,3.5,-,N/A,,Clear,180,2013-11-26 19:53:00
12:53 PM,34.0,21.9,61,30.31,10.0,South,3.5,-,N/A,,Clear,170,2013-11-26 20:53:00
1:53 PM,35.1,23.0,61,30.30,10.0,South,4.6,-,N/A,,Clear,180,2013-11-26 21:53:00
2:53 PM,35.1,23.0,61,30.29,10.0,Calm,Calm,-,N/A,,Clear,0,2013-11-26 22:53:00
3:53 PM,30.9,21.9,69,30.30,10.0,Calm,Calm,-,N/A,,Clear,0,2013-11-26 23:53:00
4:53 PM,24.1,18.0,77,30.31,10.0,Calm,Calm,-,N/A,,Clear,0,2013-11-27 00:53:00
5:53 PM,21.0,17.1,85,30.32,10.0,NW,4.6,-,N/A,,Clear,310,2013-11-27 01:53:00
6:53 PM,23.0,19.0,85,30.30,10.0,NW,3.5,-,N/A,,Clear,320,2013-11-27 02:53:00
7:53 PM,21.9,18.0,85,30.29,10.0,Calm,Calm,-,N/A,,Clear,0,2013-11-27 03:53:00
8:53 PM,23.0,19.0,85,30.28,10.0,Calm,Calm,-,N/A,,Clear,0,2013-11-27 04:53:00
9:53 PM,21.9,18.0,85,30.28,10.0,Calm,Calm,-,N/A,,Clear,0,2013-11-27 05:53:00
10:53 PM,21.0,18.0,88,30.29,10.0,Calm,Calm,-,N/A,,Clear,0,2013-11-27 06:53:00
11:53 PM,21.9,19.0,89,30.29,10.0,Calm,Calm,-,N/A,,Clear,0,2013-11-27 07:53:00